Weather observations for the past three days for
Delta County Airport
Imperial (Metric)
Date Time (edt) Wind (mph) Vis. (mi.) Weather Sky Cond. Temperature (ºF) Relative Humidity Wind Chill (°F) Heat Index (°F) Pressure Precipitation (in)
Air Dwpt 6 hour altimeter (in) sea level (mb) 1 hr 3 hr 6 hr
Max. Min.
07 13:56 W 9 10.00 Overcast BKN060 OVC080 46 26.1 46.9 36 46% 42 29.85 1011.5
07 12:56 W 13 10.00 Overcast BKN060 OVC070 46 24.1 42% 41 29.86 1011.8
07 11:56 W 7 10.00 Overcast FEW060 OVC085 46 25 44% 43 29.87 1012.3
07 10:56 W 9 10.00 Overcast OVC080 44.1 27 51% 40 29.88 1012.8
07 09:56 W 8 10.00 Overcast SCT065 OVC080 42.1 28.9 60% 38 29.89 1013.1
07 08:56 W 7 10.00 Overcast OVC065 39 28.9 67% 35 29.89 1013.2
07 07:56 Calm 10.00 Overcast OVC065 36 32 37 33.1 86% 29.89 1012.9
07 06:56 W 3 10.00 Overcast OVC065 35.1 28.9 78% 29.87 1012.6
07 05:56 W 3 10.00 Overcast OVC070 34 30.9 89% 29.88 1012.6
07 04:56 Calm 10.00 Overcast OVC075 35.1 30 82% 29.88 1012.9
07 03:56 W 3 10.00 Overcast BKN065 OVC080 37 30 76% 29.9 1013.3
07 02:56 Calm 10.00 Overcast OVC075 36 30 79% 29.91 1013.6
07 01:56 Calm 10.00 Overcast OVC075 37 28.9 44.1 37 73% 29.92 1014.2
07 00:56 Calm 10.00 Overcast OVC070 39 28.9 67% 29.93 1014.4
06 23:56 NE 5 10.00 Overcast OVC080 39 28.9 67% 36 29.93 1014.5
06 22:56 W 3 10.00 Overcast OVC080 37.9 30.9 76% 29.93 1014.5
06 21:56 S 5 10.00 Overcast OVC080 39.9 28.9 65% 37 29.92 1014.2
06 20:56 W 7 10.00 Overcast OVC075 43 21.9 43% 39 29.91 1013.9
06 19:56 W 9 10.00 Overcast OVC065 44.1 21 46 42.1 40% 40 29.9 1013.6
06 18:56 NW 13 10.00 Overcast OVC065 44.1 21 40% 38 29.9 1013.4
06 17:56 NW 8 10.00 Overcast OVC075 44.1 24.1 45% 40 29.9 1013.5
06 16:56 W 13 G 21 10.00 Overcast FEW055 OVC075 45 23 42% 39 29.9 1013.2
06 15:56 W 9 10.00 Overcast OVC055 44.1 24.1 45% 40 29.91 1013.5
06 14:56 W 12 G 16 10.00 Overcast OVC055 43 21.9 43% 37 29.9 1013.4
06 13:56 W 8 10.00 Overcast OVC055 42.1 21.9 44.1 36 45% 38 29.91 1013.6
06 12:56 W 12 10.00 Overcast OVC055 43 21 42% 37 29.92 1014.0
06 11:56 NW 13 10.00 Overcast OVC055 43 21 42% 37 29.92 1013.9
06 10:56 NW 10 G 21 10.00 Overcast SCT047 OVC060 42.1 21.9 45% 37 29.91 1013.8
06 09:56 NW 12 10.00 Overcast FEW041 OVC065 41 24.1 51% 35 29.91 1013.8
06 08:56 W 8 10.00 Overcast OVC065 37.9 25 60% 33 29.91 1013.8
06 07:56 W 6 10.00 Overcast OVC065 36 27 37.9 30.9 70% 32 29.9 1013.4
06 06:56 W 5 10.00 Overcast OVC065 34 26.1 73% 30 29.87 1012.5
06 05:56 NW 5 10.00 Overcast OVC060 35.1 25 67% 32 29.87 1012.2
06 04:56 W 5 10.00 Overcast OVC055 33.1 27 78% 29 29.87 1012.4
06 03:56 W 5 10.00 Overcast OVC065 32 28 85% 28 29.87 1012.2
06 02:56 Calm 10.00 A Few Clouds FEW065 34 23 64% 29.86 1012.1
06 01:56 Calm 10.00 Overcast OVC065 37.9 21 46 37.9 51% 29.87 1012.1
06 00:56 NW 3 10.00 Overcast OVC060 39 21.9 50% 29.86 1011.9
05 23:56 NW 5 10.00 Overcast OVC065 39.9 23 51% 37 29.85 1011.5
05 22:56 N 5 10.00 Overcast OVC070 39.9 28 63% 37 29.85 1011.5
05 21:56 NW 5 10.00 Overcast OVC070 43 21 42% 41 29.82 1010.6
05 20:56 NW 9 10.00 Overcast OVC070 45 23 42% 41 29.8 1009.9
05 19:56 NW 7 10.00 Overcast OVC070 46 24.1 52 46 42% 43 29.79 1009.4
05 18:56 NW 13 10.00 Overcast OVC075 48 24.1 39% 43 29.76 1008.6
05 17:56 NW 14 G 20 10.00 Overcast OVC075 48.9 24.1 38% 44 29.74 1007.8
05 16:56 NW 10 10.00 Overcast OVC080 51.1 23 33% 29.73 1007.3
05 15:56 W 8 G 23 10.00 Overcast OVC075 51.1 24.1 35% 29.71 1006.9
05 14:56 W 17 G 23 10.00 Overcast OVC080 52 25 35% 29.7 1006.4
05 13:56 W 17 G 21 10.00 Overcast OVC070 48.9 23 51.1 41 36% 43 29.69 1006.0
05 12:56 W 16 G 22 10.00 Overcast OVC070 48.9 25 39% 44 29.68 1005.6
05 11:56 W 16 G 23 10.00 Overcast FEW055 OVC075 48 26.1 42% 42 29.68 1005.8
05 10:56 W 13 10.00 Overcast BKN055 OVC070 46 25 44% 41 29.68 1005.7
05 09:56 W 17 G 22 10.00 Overcast BKN045 BKN055 OVC080 45 26.1 48% 38 29.68 1005.5
05 08:56 W 8 10.00 Overcast OVC080 43 28 56% 39 29.66 1004.9
05 07:56 W 5 10.00 Overcast OVC075 39.9 28.9 44.1 34 65% 37 29.66 1004.8
05 06:56 W 3 10.00 Overcast OVC070 39 28.9 67% 29.64 1004.1
05 05:56 W 6 10.00 Overcast OVC070 39 28.9 67% 35 29.61 1003.4
05 04:56 W 3 10.00 Overcast OVC060 39 28.9 67% 29.6 1002.8
05 03:56 W 5 10.00 Mostly Cloudy BKN070 36 30.9 82% 33 29.59 1002.2
05 02:56 Calm 10.00 Overcast OVC070 37.9 28.9 70% 29.58 1002.0
05 01:56 W 6 10.00 Partly Cloudy SCT070 44.1 27 55.9 44.1 51% 41 29.58 1001.7
05 00:56 W 7 10.00 Overcast OVC080 46 26.1 46% 43 29.56 1001.3
04 23:56 NW 9 10.00 Fair CLR 48 27 44% 44 29.52 1000.0
04 22:56 NW 15 G 22 10.00 Mostly Cloudy BKN080 51.1 28 41% 29.49 999.2
04 21:56 Vrbl 3 10.00 Mostly Cloudy FEW060 BKN070 BKN095 50 37.9 63% 29.46 998.2
04 20:56 NE 6 10.00 Partly Cloudy SCT100 52 39 61% 29.41 996.5
04 19:56 NE 8 10.00 Mostly Cloudy BKN095 55.9 42.1 73.9 55 60% 29.38 995.4
04 18:56 E 6 10.00 A Few Clouds FEW110 59 44.1 58% 29.36 994.5
04 17:56 NE 6 10.00 Overcast OVC100 60.1 44.1 56% 29.33 993.9
04 16:56 NE 9 10.00 Overcast BKN100 OVC120 62.1 44.1 52% 29.3 992.6
04 15:56 W 22 G 29 10.00 Mostly Cloudy and Breezy BKN100 BKN110 73.9 36 25% 29.26 991.2
Date Time (edt) Wind (mph) Vis. (mi.) Weather Sky Cond. Air Dwpt Max. Min. Relative Humidity Wind Chill (°F) Heat Index (°F) altimeter (in) sea level (mb) 1 hr 3 hr 6 hr
6 hour
Temperature (ºF) Pressure Precipitation (in)